This is the latest recevied weather packets stored in our database for station/object WD9U. If no packets are shown the sender has not sent any weather packets the latest 10 day(s).
| Time | Temp. | Humidity | Pressure | Rain* | Wind** | Luminosity | Snow |
|---|---|---|---|---|---|---|---|
| 1777995911 | 2.22° C | 49% | 1009.9 hPa | 0 mm | - | 157 W/m² | - |
| 1777995788 | 2.22° C | 50% | 1009.9 hPa | 0 mm | - | 156 W/m² | - |
| 1777995428 | 2.22° C | 51% | 1009.7 hPa | 0 mm | - | 146 W/m² | - |
| 1777995076 | 2.78° C | 52% | 1009.7 hPa | 0 mm | - | 154 W/m² | - |
| 1777994717 | 2.78° C | 50% | 1009.6 hPa | 0 mm | - | 151 W/m² | - |
| 1777994356 | 2.78° C | 52% | 1009.4 hPa | 0 mm | - | 144 W/m² | - |
| 1777993996 | 2.78° C | 52% | 1009.2 hPa | 0 mm | - | 114 W/m² | - |
| 1777993637 | 2.78° C | 51% | 1009.2 hPa | 0 mm | - | 93 W/m² | - |
| 1777993519 | 2.78° C | 51% | 1009.1 hPa | 0 mm | - | 90 W/m² | - |
| 1777993276 | 2.78° C | 51% | 1009.1 hPa | 0 mm | - | 94 W/m² | - |
| 1777992916 | 2.78° C | 50% | 1009 hPa | 0 mm | - | 95 W/m² | - |
| 1777992555 | 3.33° C | 48% | 1008.9 hPa | 0 mm | - | 112 W/m² | - |
| 1777992317 | 3.33° C | 49% | 1008.8 hPa | 0 mm | - | 122 W/m² | - |
| 1777992195 | 3.33° C | 48% | 1008.9 hPa | 0 mm | - | 126 W/m² | - |
| 1777991834 | 3.33° C | 50% | 1008.8 hPa | 0 mm | - | 167 W/m² | - |
| 1777991474 | 3.33° C | 50% | 1008.7 hPa | 0 mm | - | 188 W/m² | - |
| 1777991114 | 3.89° C | 50% | 1008.6 hPa | 0 mm | - | 187 W/m² | - |
| 1777990754 | 3.89° C | 49% | 1008.6 hPa | 0 mm | - | 391 W/m² | - |
| 1777990394 | 3.89° C | 51% | 1008.6 hPa | 0 mm | - | 697 W/m² | - |
| 1777990034 | 3.33° C | 51% | 1008.7 hPa | 0 mm | - | 343 W/m² | - |
| 1777989917 | 3.33° C | 50% | 1008.5 hPa | 0 mm | - | 162 W/m² | - |
| 1777989674 | 3.33° C | 51% | 1008.6 hPa | 0 mm | - | 172 W/m² | - |
| 1777989314 | 3.33° C | 53% | 1008.4 hPa | 0 mm | - | 512 W/m² | - |
| 1777988954 | 3.33° C | 53% | 1008.4 hPa | 0 mm | - | 230 W/m² | - |
| 1777988717 | 2.78° C | 54% | 1008.5 hPa | 0 mm | - | 348 W/m² | - |
* Rain latest hour (hover to see other rain measurements)
** Current wind speed in m/s (hover to see current wind gust speed)